Date,TemperatureHighF,TemperatureAvgF,TemperatureLowF,DewpointHighF,DewpointAvgF,DewpointLowF,HumidityHigh,HumidityAvg,HumidityLow,PressureMaxIn,PressureMinIn,WindSpeedMaxMPH,WindSpeedAvgMPH,GustSpeedMaxMPH,PrecipitationSumIn
2013-5-1,63,52,47,-100,-100,-100,0,0,100,0.00,40.00,30,15,33,0.00
2013-5-2,54,50,45,-100,-100,-100,0,0,100,0.00,40.00,15,7,17,0.00
2013-5-3,56,51,48,-100,-100,-100,0,0,100,0.00,40.00,18,11,21,0.00
2013-5-4,56,51,47,-100,-100,-100,0,0,100,0.00,40.00,18,7,21,0.00
2013-5-5,58,52,44,-100,-100,-100,0,0,100,0.00,40.00,14,4,15,0.00
2013-5-6,59,54,48,-100,-100,-100,0,0,100,0.00,40.00,17,4,18,0.00
2013-5-7,63,55,46,-100,-100,-100,0,0,100,0.00,40.00,10,4,11,0.00
2013-5-8,69,59,49,-100,-100,-100,0,0,100,0.00,40.00,13,4,14,0.00
2013-5-9,65,60,53,-100,-100,-100,0,0,100,0.00,40.00,14,8,20,0.00
2013-5-10,54,40,38,-100,-100,-100,0,0,100,0.00,40.00,18,12,28,0.00
2013-5-11,49,42,37,-100,-100,-100,0,0,100,0.00,40.00,26,12,30,0.00
2013-5-12,40,36,34,-100,-100,-100,0,0,100,0.00,40.00,31,18,46,0.00
2013-5-13,50,40,32,-100,-100,-100,0,0,100,0.00,40.00,22,12,26,0.00
2013-5-14,45,43,41,-100,-100,-100,0,0,100,0.00,40.00,26,17,31,0.00
2013-5-15,72,57,44,-100,-100,-100,0,0,100,0.00,40.00,24,17,33,0.00
2013-5-16,62,55,50,-100,-100,-100,0,0,100,0.00,40.00,18,10,26,0.00
2013-5-17,56,50,46,-100,-100,-100,0,0,100,0.00,40.00,10,6,11,0.00
2013-5-18,53,50,47,-100,-100,-100,0,0,100,0.00,40.00,9,5,10,0.00
2013-5-19,60,52,49,-100,-100,-100,0,0,100,0.00,40.00,16,9,16,0.00
2013-5-20,58,52,47,-100,-100,-100,0,0,100,0.00,40.00,16,8,21,0.00
2013-5-21,59,50,47,-100,-100,-100,0,0,100,0.00,40.00,16,7,24,0.00
2013-5-22,55,51,47,-100,-100,-100,0,0,100,0.00,40.00,13,5,18,0.00
2013-5-23,52,46,40,-100,-100,-100,0,0,100,0.00,40.00,17,12,30,0.00
2013-5-24,56,44,37,-100,-100,-100,0,0,100,0.00,40.00,15,9,24,0.00
2013-5-25,60,49,38,-100,-100,-100,0,0,100,0.00,40.00,13,7,18,0.00
2013-5-26,61,52,42,-100,-100,-100,0,0,100,0.00,40.00,13,7,16,0.00
2013-5-27,56,50,43,-100,-100,-100,0,0,100,0.00,40.00,15,7,16,0.00
2013-5-28,52,49,47,-100,-100,-100,0,0,100,0.00,40.00,22,12,25,0.00
2013-5-29,71,49,50,-100,-100,-100,0,0,100,0.00,40.00,18,7,22,0.00
2013-5-30,77,64,53,-100,-100,-100,0,0,100,0.00,40.00,18,9,21,0.00
2013-5-31,78,65,60,-100,-100,-100,0,0,100,0.00,40.00,20,11,26,0.00